Total_Precipitation_Accumulation
1.72 1.73 1.58 1.59 1.65 1.89 2.24 2.59 2.64 2.86 2.95 2.73 2.34 2.13 2.16 2.04 2.03 1.91 1.54 1.59 1.77 1.81 1.79 1.76 1.72 1.68 1.70 1.64 1.43 1.29 1.13 1.00 0.86 0.70 0.53 0.44 0.46 0.41 0.29 0.19 0.12 0.08 0.07
1.54 1.50 1.48 1.57 1.65 1.65 1.81 2.21 2.44 2.67 2.65 2.42 2.04 1.91 1.89 1.93 1.82 1.74 1.51 1.55 1.68 1.57 1.57 1.73 1.85 1.87 1.84 1.76 1.61 1.46 1.27 1.11 0.93 0.71 0.60 0.56 0.42 0.39 0.38 0.28 0.18 0.11 0.06
1.25 1.26 1.30 1.28 1.34 1.36 1.39 1.54 1.77 1.95 1.95 1.89 1.84 1.86 1.84 1.77 1.62 1.56 1.60 1.53 1.38 1.42 1.46 1.55 1.67 1.77 1.91 2.00 1.93 1.74 1.49 1.25 1.02 0.79 0.60 0.49 0.42 0.32 0.26 0.26 0.26 0.19 0.09
0.80 0.83 0.85 0.84 0.84 0.82 0.89 1.04 1.17 1.30 1.47 1.62 1.73 1.71 1.72 1.73 1.61 1.55 1.53 1.48 1.45 1.25 1.42 1.50 1.49 1.54 1.74 1.92 2.01 2.10 1.88 1.52 1.24 1.02 0.78 0.56 0.45 0.37 0.27 0.23 0.27 0.26 0.17
0.59 0.64 0.67 0.69 0.56 0.53 0.58 0.61 0.80 0.92 1.07 1.18 1.14 1.25 1.27 1.25 1.22 1.15 1.17 1.07 1.20 1.16 1.22 1.30 1.36 1.35 1.53 1.84 2.17 2.42 2.31 1.88 1.48 1.23 1.09 0.88 0.70 0.52 0.38 0.30 0.26 0.24 0.20
0.54 0.59 0.55 0.52 0.43 0.44 0.51 0.61 0.75 0.75 0.74 0.79 0.73 0.85 0.86 0.78 0.80 0.81 0.73 0.74 0.81 0.79 0.88 1.02 1.06 0.96 1.24 1.63 2.01 2.29 2.39 2.22 1.86 1.52 1.42 1.29 1.14 0.86 0.60 0.46 0.36 0.30 0.24
0.53 0.58 0.49 0.53 0.45 0.42 0.43 0.46 0.55 0.58 0.55 0.52 0.67 0.77 0.66 0.54 0.54 0.49 0.49 0.55 0.60 0.72 0.86 1.00 0.98 0.97 0.91 1.00 1.17 1.54 1.97 2.28 2.27 1.90 1.66 1.55 1.45 1.16 0.76 0.62 0.56 0.43 0.34
0.44 0.45 0.53 0.43 0.41 0.42 0.41 0.41 0.48 0.49 0.45 0.45 0.56 0.69 0.69 0.73 0.67 0.37 0.44 0.52 0.55 0.71 0.78 0.81 0.87 0.97 0.85 0.89 0.62 0.77 1.27 1.67 2.09 2.08 1.78 1.58 1.56 1.35 0.95 0.75 0.66 0.57 0.48
0.40 0.40 0.40 0.40 0.46 0.36 0.42 0.49 0.48 0.47 0.43 0.39 0.42 0.53 0.60 0.62 0.61 0.54 0.48 0.48 0.54 0.70 0.72 0.81 0.80 0.85 0.87 0.99 0.93 0.70 0.86 1.00 1.48 2.01 2.07 1.71 1.42 1.27 1.13 1.01 0.85 0.64 0.55
0.38 0.34 0.30 0.35 0.42 0.40 0.51 0.39 0.41 0.46 0.45 0.38 0.34 0.32 0.33 0.40 0.49 0.61 0.60 0.51 0.53 0.59 0.59 0.56 0.61 0.75 0.80 0.83 0.85 0.60 0.48 0.58 1.00 1.59 1.93 1.92 1.64 1.38 1.21 1.17 1.22 1.07 0.79
0.45 0.36 0.34 0.35 0.35 0.35 0.43 0.43 0.52 0.47 0.47 0.43 0.34 0.30 0.32 0.30 0.29 0.33 0.50 0.56 0.55 0.42 0.34 0.38 0.46 0.62 0.69 0.69 0.79 0.59 0.41 0.48 0.65 0.98 1.32 1.58 1.67 1.51 1.31 1.33 1.61 1.76 1.54
0.51 0.47 0.43 0.45 0.44 0.37 0.35 0.35 0.40 0.45 0.52 0.55 0.44 0.34 0.35 0.32 0.26 0.26 0.26 0.30 0.41 0.36 0.31 0.33 0.40 0.49 0.55 0.62 0.61 0.50 0.51 0.59 0.62 0.70 0.80 0.98 1.21 1.28 1.23 1.28 1.52 1.87 2.05
0.49 0.49 0.47 0.49 0.50 0.49 0.43 0.38 0.34 0.37 0.45 0.51 0.49 0.40 0.33 0.26 0.27 0.30 0.26 0.21 0.24 0.25 0.30 0.28 0.33 0.37 0.37 0.56 0.74 0.74 0.62 0.65 0.62 0.62 0.66 0.70 0.82 0.98 1.00 1.04 1.22 1.53 1.85
0.53 0.49 0.49 0.46 0.47 0.50 0.49 0.50 0.40 0.36 0.39 0.42 0.43 0.48 0.43 0.26 0.23 0.29 0.29 0.31 0.32 0.31 0.35 0.35 0.45 0.49 0.45 0.53 0.68 0.77 0.65 0.61 0.53 0.49 0.51 0.52 0.57 0.66 0.77 0.81 0.87 0.99 1.17
0.63 0.57 0.52 0.49 0.51 0.50 0.50 0.52 0.50 0.48 0.45 0.40 0.41 0.49 0.46 0.35 0.26 0.23 0.28 0.35 0.42 0.42 0.41 0.46 0.59 0.64 0.54 0.56 0.58 0.58 0.65 0.66 0.56 0.48 0.41 0.40 0.41 0.42 0.47 0.54 0.60 0.63 0.64
0.54 0.58 0.58 0.53 0.52 0.54 0.55 0.58 0.60 0.65 0.67 0.60 0.52 0.53 0.51 0.47 0.45 0.35 0.33 0.37 0.42 0.45 0.45 0.41 0.54 0.60 0.64 0.55 0.59 0.59 0.61 0.61 0.52 0.48 0.40 0.36 0.36 0.37 0.37 0.38 0.44 0.50 0.51
0.61 0.59 0.60 0.58 0.54 0.54 0.54 0.56 0.59 0.68 0.80 0.87 0.79 0.71 0.66 0.63 0.62 0.53 0.49 0.47 0.45 0.48 0.54 0.56 0.63 0.75 0.79 0.71 0.70 0.64 0.58 0.60 0.52 0.50 0.43 0.38 0.34 0.32 0.35 0.35 0.36 0.37 0.41
0.80 0.76 0.71 0.70 0.63 0.55 0.56 0.55 0.55 0.59 0.72 0.89 1.03 1.05 0.92 0.81 0.77 0.66 0.61 0.58 0.54 0.58 0.63 0.74 0.80 0.87 0.88 0.86 0.80 0.63 0.51 0.49 0.52 0.53 0.46 0.43 0.42 0.38 0.35 0.34 0.33 0.32 0.33
0.98 0.95 0.90 0.86 0.80 0.74 0.70 0.69 0.64 0.61 0.64 0.72 0.86 1.02 1.07 1.03 0.89 0.81 0.74 0.67 0.63 0.61 0.67 0.71 0.79 0.93 1.00 1.00 0.83 0.58 0.47 0.50 0.45 0.55 0.54 0.43 0.39 0.37 0.35 0.31 0.28 0.27 0.26
1.12 1.13 1.11 1.01 0.92 0.87 0.83 0.83 0.80 0.76 0.75 0.73 0.72 0.75 0.88 1.04 1.00 0.91 0.83 0.79 0.75 0.76 0.77 0.76 0.79 0.93 1.10 1.15 0.94 0.65 0.54 0.52 0.48 0.41 0.44 0.41 0.38 0.35 0.33 0.30 0.27 0.26 0.26
1.33 1.38 1.32 1.21 1.13 1.07 0.97 1.01 1.08 1.05 1.03 0.90 0.78 0.71 0.69 0.80 0.90 0.91 0.81 0.78 0.80 0.82 0.82 0.79 0.81 0.96 1.11 1.20 0.97 0.73 0.58 0.52 0.48 0.43 0.38 0.33 0.31 0.31 0.33 0.34 0.33 0.29 0.26
1.54 1.48 1.41 1.39 1.33 1.19 1.25 1.21 1.11 1.09 1.15 1.12 0.98 0.86 0.73 0.66 0.68 0.73 0.78 0.78 0.78 0.79 0.81 0.81 0.82 0.93 1.04 1.08 1.10 0.92 0.71 0.52 0.43 0.41 0.42 0.37 0.34 0.34 0.30 0.27 0.33 0.32 0.29
1.48 1.41 1.43 1.45 1.42 1.39 1.26 1.04 0.89 0.88 0.93 0.98 0.99 0.93 0.72 0.59 0.62 0.63 0.72 0.72 0.69 0.64 0.64 0.71 0.75 0.84 1.09 1.23 1.33 1.07 0.86 0.73 0.58 0.50 0.48 0.41 0.40 0.37 0.32 0.29 0.37 0.33 0.30
1.35 1.30 1.26 1.17 1.13 1.07 0.98 0.85 0.79 0.79 0.81 0.79 0.86 0.90 0.83 0.72 0.65 0.65 0.63 0.59 0.57 0.55 0.50 0.49 0.55 0.71 0.95 1.29 1.47 1.44 1.32 1.11 0.93 0.74 0.59 0.47 0.40 0.36 0.34 0.31 0.36 0.36 0.32
1.19 1.07 0.99 0.97 0.97 0.98 1.00 0.84 0.77 0.80 0.84 0.77 0.75 0.75 0.75 0.67 0.59 0.50 0.51 0.47 0.44 0.44 0.40 0.41 0.44 0.60 0.78 1.03 1.37 1.53 1.45 1.23 1.00 0.75 0.57 0.45 0.38 0.35 0.32 0.29 0.31 0.36 0.34
1.10 1.04 0.97 0.94 0.93 0.95 0.98 0.80 0.74 0.77 0.81 0.77 0.77 0.79 0.82 0.71 0.56 0.41 0.44 0.49 0.43 0.37 0.39 0.39 0.41 0.46 0.58 0.75 1.05 1.22 1.18 1.11 0.93 0.72 0.50 0.43 0.36 0.39 0.34 0.28 0.24 0.25 0.27